Wetbulb
52.17 51.75 51.22 50.52 49.55 49.38 49.25 49.00 49.52 48.71 48.59 48.46 49.17 49.45 49.23 49.21 49.36 47.56 47.60 51.72 48.24 43.72 45.69 49.43 49.34 46.37 46.56 48.35 44.80 48.45 49.93 50.37 48.86 43.73 43.35 43.55 43.17 45.52 45.36 46.90 47.39 45.15 43.07 41.51 42.60 40.79 39.84 60.73 59.69 54.73 54.33 56.50 62.14 59.31
51.86 51.94 51.62 50.73 49.23 49.30 49.00 49.18 49.24 48.49 48.65 48.48 48.32 48.76 49.25 49.06 48.91 48.84 47.53 51.20 53.13 47.61 44.85 49.54 49.79 50.47 49.13 50.77 48.32 48.63 48.73 50.44 53.46 49.53 47.79 47.81 44.58 46.30 45.86 42.90 51.70 45.57 47.94 45.20 45.37 44.98 60.40 62.82 61.76 62.61 63.01 62.14 63.03 62.20
51.86 51.78 51.63 50.89 49.00 49.11 48.89 48.74 48.35 48.49 48.97 48.58 48.44 48.23 48.61 48.83 48.78 48.28 45.33 49.06 50.21 48.32 48.54 48.71 47.91 51.38 50.66 49.55 49.90 46.31 50.07 51.13 50.45 53.60 51.37 50.61 47.86 49.20 44.62 47.39 49.68 52.95 56.18 50.29 51.13 56.34 57.58 59.01 59.99 61.52 64.31 63.91 64.10 66.40
51.52 51.60 51.43 50.82 49.46 49.13 48.96 48.24 48.34 48.58 48.78 48.41 48.22 48.00 48.05 48.38 48.65 48.37 44.86 48.82 49.64 48.28 43.64 48.41 55.53 53.76 57.23 53.00 51.15 50.99 50.35 52.51 51.93 51.86 49.45 48.23 46.21 51.33 46.33 49.85 49.25 52.03 54.19 53.13 54.27 56.22 58.69 57.32 57.57 60.02 62.58 65.58 65.72 65.21
51.11 51.33 51.09 50.55 49.32 48.88 48.68 48.62 48.59 48.67 48.53 48.28 47.95 47.70 47.76 48.17 48.82 47.85 47.71 49.85 52.54 48.14 43.04 45.62 51.02 54.05 54.43 53.35 52.18 50.62 49.66 49.83 48.67 47.28 46.86 44.95 48.22 49.01 49.87 49.91 48.98 52.14 52.31 50.83 50.11 55.33 56.86 57.51 59.14 61.99 62.09 63.42 64.46 64.03
50.63 50.78 50.72 49.90 48.95 48.84 48.59 48.67 48.38 48.59 48.15 48.00 47.83 47.77 48.00 48.14 48.43 46.60 48.12 52.86 51.27 51.57 46.42 43.44 53.34 53.30 53.55 52.91 51.86 50.13 49.91 49.80 49.26 46.76 46.12 48.82 51.27 50.09 45.88 45.77 53.64 55.05 57.09 56.85 53.95 57.02 58.87 59.31 60.86 61.24 62.11 64.23 64.76 63.43
49.71 50.47 49.86 49.19 48.85 48.54 48.21 48.10 48.41 48.01 47.95 47.65 47.53 48.13 48.43 48.62 46.49 44.00 44.64 48.37 49.06 49.73 46.69 44.63 46.85 52.16 53.31 51.85 49.90 48.99 50.84 49.59 48.65 46.76 45.49 46.40 47.63 49.99 46.55 43.09 52.11 55.01 55.12 55.69 56.85 56.76 57.16 60.35 57.78 61.15 59.44 64.41 63.19 62.81
49.48 49.70 49.26 48.64 48.94 48.57 48.14 48.08 48.08 47.85 47.72 47.31 47.65 47.96 48.43 48.09 47.67 45.82 50.79 51.07 50.34 47.86 49.22 43.76 46.18 48.78 53.21 47.94 46.98 51.51 48.58 49.18 49.31 47.61 48.19 46.25 47.67 48.66 43.82 48.77 51.17 54.13 54.86 56.04 56.43 56.44 55.25 56.19 59.07 59.29 60.00 58.41 61.06 60.62
48.92 49.38 49.06 48.71 49.01 48.48 48.27 48.21 48.23 48.03 47.48 47.24 47.52 47.88 47.11 47.34 47.75 50.14 52.56 52.48 51.81 49.12 44.20 46.29 44.18 43.80 53.48 49.43 51.35 50.43 50.61 45.38 49.92 45.50 46.24 47.28 44.89 43.09 48.03 48.21 50.07 52.77 52.83 53.05 54.72 55.31 54.91 55.19 55.62 56.99 58.61 59.58 59.22 60.82
49.12 49.07 48.97 48.74 48.80 48.80 48.35 48.34 48.22 48.05 47.87 47.18 45.51 46.39 44.98 50.56 53.79 51.83 49.62 47.69 47.41 48.90 47.90 43.86 49.16 45.61 48.69 49.64 48.75 49.36 49.71 45.75 43.35 46.57 49.11 44.95 43.52 48.60 50.90 52.39 54.07 54.72 54.44 54.17 51.12 51.07 52.92 53.00 54.14 55.15 56.19 56.21 57.67 57.55
49.62 48.99 49.00 48.80 48.70 48.50 48.25 48.40 48.14 47.81 47.22 45.08 45.29 46.70 52.98 52.33 50.63 48.33 45.22 44.51 45.89 44.21 46.75 46.26 46.25 47.24 51.76 46.69 47.18 50.41 47.08 47.97 42.42 45.59 45.28 44.38 43.94 50.16 53.85 53.93 55.19 55.07 54.93 54.47 54.74 54.59 53.93 53.00 53.22 54.64 55.06 55.95 55.72 58.46
49.73 49.15 48.88 48.77 48.47 48.53 48.60 48.92 47.74 43.94 46.83 43.98 43.84 47.07 50.39 47.93 46.01 42.71 41.98 44.81 43.95 42.19 48.87 46.42 47.33 50.43 50.98 54.07 49.11 48.92 45.73 46.47 41.43 49.69 46.50 42.33 48.64 53.24 53.31 53.52 54.11 54.57 54.83 54.90 55.44 54.90 55.08 55.28 55.03 55.23 55.09 56.00 56.49 57.86
49.17 49.14 48.85 48.51 48.46 48.92 48.97 48.69 47.79 46.88 46.61 48.41 44.97 45.38 44.24 44.21 36.18 36.79 35.95 40.84 42.58 48.10 50.46 50.38 48.54 50.74 51.58 52.19 48.89 47.22 42.52 42.49 49.18 45.11 43.12 46.78 50.74 53.01 53.13 53.52 53.60 54.05 54.19 54.24 54.29 54.97 55.21 55.42 56.30 55.44 55.28 56.89 56.64 57.62
49.19 48.93 48.42 48.48 48.88 49.13 49.03 48.17 46.76 46.16 44.56 43.91 42.82 33.11 38.90 37.80 39.94 41.70 43.14 45.57 48.38 49.58 49.50 49.48 49.45 48.60 50.34 48.30 47.76 43.32 46.37 47.66 42.26 40.66 42.22 48.71 50.18 51.26 52.60 53.35 52.99 52.68 53.18 52.66 52.75 53.23 52.84 53.28 54.48 55.59 56.23 57.51 57.46 56.11
48.89 48.68 48.20 48.54 49.13 49.22 48.66 47.35 46.07 45.68 44.91 42.37 43.83 35.36 38.76 43.81 46.10 48.08 49.09 47.93 50.97 51.72 49.80 48.74 48.90 49.36 47.50 46.14 46.57 45.88 42.80 40.47 43.00 42.36 46.92 50.91 52.11 52.37 52.33 52.78 52.72 52.40 52.29 52.37 53.66 52.51 52.15 52.37 53.11 54.58 56.59 57.46 56.59 57.56
48.54 47.90 46.74 48.59 49.01 48.79 47.96 46.11 45.00 46.61 46.55 44.75 44.39 41.29 45.41 44.39 44.09 46.47 47.80 47.69 51.61 51.22 51.03 49.76 46.20 44.81 43.67 44.86 43.22 42.06 41.57 40.03 42.15 46.08 49.27 51.53 51.31 51.26 50.86 51.01 51.11 51.55 51.55 51.90 52.31 52.29 52.48 52.38 52.47 53.64 55.80 56.14 57.33 56.53
47.22 43.62 48.39 48.80 48.75 48.11 46.84 44.27 44.54 43.69 43.63 42.89 42.32 46.83 45.78 45.22 46.23 47.20 49.95 47.45 52.22 49.90 46.01 47.09 43.00 42.12 47.31 42.95 41.82 45.81 43.41 44.60 46.55 48.14 50.46 51.91 50.00 49.78 50.00 50.17 50.99 51.65 51.90 52.16 52.18 52.95 52.88 53.29 53.38 54.35 54.49 53.23 54.27 55.20
46.65 47.85 48.87 48.44 47.42 44.85 44.58 44.52 45.09 43.29 40.51 43.23 41.86 44.70 47.60 48.74 49.70 50.51 49.09 51.60 50.94 48.84 48.21 45.12 47.86 43.55 42.27 40.50 41.87 46.41 47.02 49.52 50.11 49.57 49.69 50.76 50.78 51.23 51.21 50.40 51.27 51.99 52.39 52.59 52.91 53.50 53.79 54.57 54.63 54.65 55.52 55.01 54.77 54.63
47.46 47.80 48.33 47.69 47.04 45.32 43.73 44.81 47.00 41.26 42.44 45.64 47.32 48.62 49.12 50.06 50.60 50.88 51.43 52.61 52.21 51.74 48.90 47.53 43.47 42.03 43.89 47.33 46.86 46.98 47.60 48.23 47.56 48.45 49.54 50.50 50.97 51.36 51.29 51.48 52.37 53.44 53.76 53.69 53.67 54.19 54.39 55.58 55.41 55.11 54.91 54.39 52.50 52.34
48.20 48.07 47.88 46.58 45.52 45.87 43.68 44.63 50.32 45.26 43.30 46.56 47.86 47.30 48.46 50.02 49.19 48.89 50.15 50.25 49.02 48.00 45.68 43.72 44.09 47.65 48.26 48.42 49.81 48.92 49.43 49.68 48.99 47.44 47.77 48.91 50.25 51.06 51.84 52.25 51.91 52.76 53.77 53.61 53.62 51.02 53.31 53.06 53.89 54.18 53.72 52.73 52.08 51.98
45.79 45.71 46.62 46.67 47.04 45.41 46.66 46.10 44.11 46.48 46.56 46.35 47.81 47.45 46.40 49.13 47.08 47.05 46.99 48.71 46.12 45.38 43.04 47.24 48.84 49.60 51.40 51.80 51.23 50.79 49.93 50.27 48.76 48.12 47.85 48.07 50.51 51.22 51.37 52.11 52.23 52.36 51.98 51.80 51.43 51.49 51.69 52.88 53.60 52.97 52.83 52.45 52.40 52.29
47.57 47.55 47.30 45.76 45.16 47.42 45.86 49.46 46.91 48.31 47.01 46.14 46.74 47.60 45.41 44.92 44.26 43.67 45.93 44.08 43.70 46.54 47.78 46.84 47.29 47.66 47.88 49.22 49.60 50.70 50.94 50.56 50.36 50.30 48.00 49.09 49.92 50.24 50.46 51.38 52.07 51.03 51.16 51.11 51.05 51.09 51.43 52.68 52.96 52.83 52.38 52.52 52.34 52.27
47.75 48.74 48.03 47.53 42.51 39.13 38.51 49.24 43.92 45.32 42.03 43.09 45.46 41.85 42.95 42.89 42.52 45.59 41.47 43.61 44.29 46.45 46.13 45.70 46.66 48.24 48.36 48.86 49.84 51.07 50.88 50.25 50.28 50.84 51.00 51.17 52.69 52.50 52.37 51.99 51.97 50.87 50.04 50.39 51.61 51.30 50.96 48.37 49.62 50.81 50.69 50.68 50.54 49.73
45.32 45.96 43.04 42.04 41.03 37.11 45.05 42.49 44.78 43.35 42.60 41.14 40.68 39.21 40.54 41.31 43.16 40.04 37.29 39.45 42.70 45.29 45.38 46.16 46.97 47.45 48.76 49.17 49.06 49.14 50.24 51.23 50.83 51.31 52.35 52.76 51.61 52.68 53.06 52.07 51.66 51.28 51.09 51.11 50.82 50.78 50.79 50.43 47.92 50.37 50.71 50.83 50.30 49.96
39.13 36.80 38.91 32.44 43.20 40.87 39.33 39.21 38.61 38.68 36.60 39.93 38.98 39.35 39.68 41.49 36.79 34.96 33.88 39.71 43.71 45.10 46.75 49.22 49.01 48.61 47.62 48.11 49.39 49.72 51.59 51.54 50.49 49.87 51.67 52.57 52.60 52.69 52.24 51.92 52.35 52.69 53.15 51.50 50.79 50.88 50.61 51.15 51.35 51.85 52.13 51.60 49.34 49.29
32.78 38.73 37.93 40.20 41.09 40.02 38.69 35.97 37.41 37.19 38.32 38.40 39.19 41.24 41.07 38.81 35.61 33.51 38.97 42.37 44.16 46.04 48.70 48.74 48.34 48.63 48.99 50.06 49.35 49.95 51.11 53.16 53.79 52.35 53.65 54.16 52.82 51.98 51.17 51.00 50.87 52.16 54.83 54.94 54.38 53.82 53.62 52.98 51.69 50.72 50.06 49.14 46.70 50.96
34.71 38.13 42.76 46.07 43.89 42.66 40.56 40.13 40.21 38.94 37.92 37.59 39.31 39.17 38.70 35.49 34.03 39.69 44.66 47.15 47.42 50.30 51.33 51.65 51.03 49.81 49.53 50.48 53.99 55.40 55.45 55.25 54.71 54.74 56.27 55.96 55.85 55.65 54.82 51.74 52.92 53.68 54.97 55.13 53.36 51.56 50.71 50.80 50.70 50.88 50.88 52.10 52.16 51.63
39.42 40.23 37.60 40.43 39.95 40.72 38.65 40.21 39.27 38.72 40.26 43.47 42.05 39.21 38.01 37.64 39.02 44.32 46.42 49.32 51.58 52.56 52.60 53.09 53.73 54.48 54.30 54.08 55.23 55.32 55.60 56.19 56.40 53.60 52.27 52.75 53.45 53.68 53.35 53.16 52.14 44.42 49.96 50.39 52.55 53.09 53.10 53.04 52.41 52.44 52.14 51.15 50.88 51.90
37.00 40.83 40.83 38.19 39.53 40.29 40.58 41.63 42.38 44.92 46.38 44.52 41.60 40.13 41.32 44.58 47.76 48.54 49.73 50.65 52.31 52.14 51.65 51.72 52.97 54.69 54.90 55.80 55.66 54.46 55.29 53.97 51.12 49.26 48.10 47.28 48.28 49.80 52.52 52.86 53.61 53.82 51.93 49.63 40.73 45.74 49.73 50.09 50.32 52.54 53.01 51.92 52.03 52.42
41.60 44.05 42.09 42.75 41.66 41.38 44.88 47.41 46.69 48.60 48.54 48.05 47.53 47.24 47.41 48.57 50.18 52.41 52.08 51.84 51.21 51.34 53.16 53.89 54.00 54.50 53.49 53.49 53.72 54.31 54.28 53.93 53.46 51.33 49.87 49.89 50.70 52.72 53.32 53.62 53.45 53.82 53.67 52.76 51.72 50.84 43.86 49.29 47.92 52.58 51.22 51.72 50.95 51.15
46.69 45.26 43.67 45.00 43.65 45.39 46.36 48.01 48.49 48.39 48.35 48.26 49.21 46.69 46.59 48.63 50.87 52.74 53.17 53.82 54.20 55.49 54.71 53.77 54.01 53.58 53.41 52.35 52.51 51.02 50.83 54.05 54.66 54.58 54.46 54.41 54.40 54.81 54.72 55.01 55.20 55.22 55.21 54.57 53.75 52.59 51.90 50.94 51.94 51.09 52.42 51.63 50.42 49.23
47.00 46.02 45.10 42.99 44.11 47.19 48.50 47.29 46.77 46.38 47.00 47.00 46.93 49.09 49.21 48.75 47.62 51.78 54.80 54.96 53.99 53.98 52.92 51.51 52.26 51.79 53.70 53.73 54.05 53.10 48.33 52.73 52.00 52.73 52.83 52.94 53.31 54.28 54.93 55.31 55.38 55.47 55.09 54.55 54.18 53.93 53.77 53.02 51.90 51.69 51.08 51.49 51.07 50.41
46.99 47.09 47.11 45.92 45.05 44.59 47.01 46.66 45.62 45.07 46.24 45.93 46.79 48.24 48.13 47.47 45.95 51.76 56.58 57.10 55.33 53.38 54.08 54.60 54.32 55.31 55.21 54.24 53.11 51.20 48.78 48.93 42.36 38.49 39.05 38.60 38.32 43.92 51.42 52.28 53.05 54.57 54.52 53.76 53.26 53.09 53.13 52.45 51.83 51.44 51.09 50.48 49.91 49.74
MSLP
1025.00 1025.13 1025.24 1025.29 1025.34 1025.28 1025.21 1025.06 1024.80 1024.67 1024.41 1024.03 1023.62 1023.15 1022.75 1022.32 1021.85 1021.37 1019.47 1018.19 1017.83 1017.03 1015.06 1013.76 1013.18 1012.69 1012.19 1012.01 1011.94 1011.29 1010.23 1009.97 1010.63 1011.18 1010.92 1010.18 1009.38 1008.68 1008.26 1007.69 1007.51 1007.79 1008.36 1008.82 1009.27 1009.29 1008.32 1006.78 1006.31 1007.22 1008.68 1009.01 1010.06 1009.84
1024.50 1024.65 1024.79 1024.96 1025.00 1025.02 1025.01 1024.88 1024.65 1024.57 1024.38 1024.05 1023.69 1023.32 1022.90 1022.54 1022.08 1021.46 1019.78 1018.47 1017.81 1017.42 1015.61 1014.36 1013.69 1013.22 1012.95 1012.83 1012.78 1012.35 1012.13 1012.16 1012.02 1011.80 1011.46 1010.65 1009.96 1009.14 1008.75 1008.36 1006.84 1007.48 1007.08 1007.85 1008.37 1008.31 1008.47 1008.11 1008.44 1008.30 1008.06 1008.54 1008.25 1008.68
1023.93 1024.14 1024.29 1024.51 1024.68 1024.72 1024.76 1024.68 1024.58 1024.41 1024.25 1024.01 1023.71 1023.36 1023.04 1022.70 1022.37 1022.17 1021.22 1019.64 1018.44 1016.91 1014.83 1013.89 1012.74 1012.22 1012.41 1012.58 1012.59 1013.06 1012.96 1013.33 1013.33 1013.34 1012.67 1011.54 1010.43 1009.57 1009.28 1008.73 1007.98 1007.59 1006.89 1007.39 1008.14 1010.17 1010.04 1010.25 1009.94 1009.69 1008.72 1008.22 1008.99 1008.22
1023.34 1023.57 1023.78 1024.04 1024.28 1024.37 1024.45 1024.48 1024.43 1024.24 1024.10 1023.92 1023.65 1023.35 1023.05 1022.74 1022.43 1022.23 1021.63 1019.93 1019.13 1017.72 1015.91 1013.07 1012.11 1012.31 1012.19 1012.34 1012.52 1012.82 1013.23 1013.49 1013.65 1013.31 1012.98 1012.34 1011.69 1010.33 1009.99 1009.50 1009.04 1008.65 1008.29 1008.96 1009.98 1010.44 1010.57 1011.16 1010.99 1010.86 1009.41 1008.75 1008.96 1009.58
1022.85 1023.06 1023.29 1023.60 1023.87 1024.02 1024.14 1024.21 1024.20 1024.03 1023.91 1023.76 1023.51 1023.26 1022.97 1022.64 1022.24 1021.68 1020.97 1019.61 1018.84 1018.56 1017.11 1014.81 1013.22 1012.11 1012.21 1012.53 1012.72 1012.77 1013.19 1013.70 1013.90 1013.35 1012.94 1012.62 1011.62 1011.02 1010.33 1009.60 1009.70 1009.17 1009.40 1010.12 1010.79 1011.24 1011.04 1011.52 1010.99 1010.17 1010.21 1010.31 1009.56 1010.18
1022.41 1022.61 1022.91 1023.19 1023.44 1023.68 1023.84 1023.91 1023.90 1023.80 1023.72 1023.59 1023.38 1023.17 1022.86 1022.56 1022.17 1021.11 1019.95 1019.13 1019.19 1018.82 1017.95 1015.39 1012.70 1012.18 1012.21 1012.54 1012.85 1012.97 1013.29 1013.78 1013.89 1013.42 1013.02 1012.15 1011.36 1011.34 1011.18 1010.66 1010.69 1010.25 1010.12 1010.74 1011.14 1010.76 1010.72 1010.93 1011.09 1010.73 1010.51 1010.24 1010.36 1010.76
1021.94 1022.20 1022.53 1022.81 1023.05 1023.32 1023.54 1023.64 1023.62 1023.59 1023.53 1023.41 1023.20 1022.95 1022.63 1022.38 1022.30 1021.48 1021.17 1020.18 1019.82 1019.89 1018.33 1015.64 1013.05 1012.08 1012.19 1012.67 1012.92 1013.11 1013.21 1013.41 1013.38 1013.25 1012.94 1012.67 1012.00 1011.50 1011.05 1010.93 1010.81 1010.39 1010.50 1010.69 1010.75 1010.72 1010.68 1010.88 1010.65 1010.85 1010.94 1010.70 1011.02 1011.61
1021.49 1021.84 1022.14 1022.42 1022.65 1022.95 1023.19 1023.34 1023.38 1023.39 1023.34 1023.16 1022.88 1022.57 1022.17 1021.77 1021.53 1021.10 1019.43 1019.15 1019.81 1019.48 1017.82 1015.88 1013.33 1012.40 1012.26 1012.55 1012.80 1012.62 1013.00 1013.08 1012.95 1012.67 1012.28 1012.17 1011.79 1011.46 1011.16 1010.68 1010.53 1010.43 1010.29 1010.50 1010.78 1010.86 1011.05 1011.08 1011.08 1010.95 1011.02 1011.25 1011.64 1012.31
1020.84 1021.31 1021.70 1022.03 1022.28 1022.57 1022.84 1023.02 1023.09 1023.13 1023.09 1022.91 1022.52 1022.07 1021.72 1021.01 1019.99 1019.46 1019.20 1019.28 1019.40 1019.35 1017.74 1015.38 1013.98 1013.61 1012.82 1012.40 1012.25 1012.27 1012.27 1012.50 1011.93 1012.17 1011.99 1011.87 1011.56 1011.17 1010.74 1010.60 1010.25 1010.25 1010.58 1010.82 1010.90 1011.25 1011.34 1011.49 1011.53 1011.29 1011.19 1011.72 1011.80 1012.09
1020.09 1020.61 1021.13 1021.60 1021.95 1022.23 1022.52 1022.72 1022.82 1022.89 1022.87 1022.72 1022.41 1021.18 1020.29 1019.19 1018.96 1019.16 1019.24 1018.91 1018.66 1017.62 1017.24 1015.54 1013.83 1014.40 1014.44 1012.87 1012.41 1012.61 1012.33 1012.12 1011.51 1011.12 1010.88 1011.28 1011.29 1010.87 1010.42 1009.98 1010.01 1010.28 1010.53 1010.85 1011.26 1011.57 1011.81 1011.96 1011.97 1011.89 1011.80 1011.81 1011.84 1011.65
1019.28 1019.92 1020.54 1021.07 1021.57 1021.93 1022.23 1022.47 1022.66 1022.75 1022.47 1022.18 1021.31 1020.40 1019.18 1019.04 1019.00 1018.49 1017.89 1017.42 1016.59 1015.63 1014.80 1013.85 1013.17 1013.43 1013.50 1013.36 1013.56 1013.84 1013.54 1012.75 1011.90 1011.16 1010.65 1011.03 1011.23 1011.58 1011.03 1010.99 1010.93 1011.07 1011.12 1011.37 1011.63 1011.88 1011.86 1011.92 1011.96 1011.98 1011.78 1011.61 1011.69 1011.90
1018.55 1019.23 1020.00 1020.62 1021.15 1021.60 1021.95 1022.25 1022.58 1022.81 1021.69 1022.23 1022.02 1020.89 1019.49 1018.81 1018.53 1018.01 1016.93 1015.85 1014.76 1013.99 1012.75 1012.27 1011.92 1011.84 1012.46 1012.15 1013.43 1014.45 1014.37 1013.59 1012.34 1011.61 1011.21 1011.60 1012.03 1012.08 1011.87 1011.91 1011.81 1011.98 1012.12 1012.24 1012.24 1012.22 1012.08 1012.10 1012.06 1011.64 1011.69 1011.64 1011.43 1011.87
1018.08 1018.79 1019.55 1020.27 1020.82 1021.29 1021.70 1022.08 1022.38 1022.43 1022.04 1021.03 1021.32 1019.99 1018.83 1018.42 1017.86 1016.90 1015.58 1014.29 1013.24 1012.73 1012.42 1012.22 1011.96 1012.09 1012.39 1012.46 1013.42 1014.39 1014.85 1013.74 1012.05 1012.06 1012.13 1012.64 1012.69 1012.85 1012.71 1012.72 1012.57 1012.60 1012.70 1012.68 1012.60 1012.60 1012.50 1012.41 1012.15 1012.05 1012.02 1011.45 1011.50 1011.49
1017.64 1018.31 1019.32 1020.06 1020.59 1021.07 1021.56 1021.98 1022.28 1022.33 1022.14 1020.68 1019.45 1019.07 1018.12 1016.96 1015.87 1014.57 1014.01 1013.48 1013.11 1012.95 1012.81 1012.87 1012.76 1012.76 1013.25 1013.43 1013.37 1013.74 1013.43 1012.99 1012.25 1012.37 1012.98 1013.67 1013.71 1013.55 1013.39 1013.42 1013.39 1013.44 1013.51 1013.31 1013.21 1013.19 1013.14 1012.98 1012.60 1012.55 1012.51 1012.08 1011.71 1011.54
1017.63 1018.46 1019.25 1020.02 1020.48 1021.01 1021.52 1021.95 1022.22 1022.09 1021.27 1019.88 1018.29 1016.96 1016.12 1015.22 1014.53 1013.63 1013.55 1014.09 1013.19 1012.90 1013.11 1013.16 1012.92 1013.08 1013.43 1013.47 1013.18 1013.13 1013.40 1013.19 1013.29 1014.13 1014.49 1014.59 1014.42 1014.33 1014.45 1014.52 1014.42 1014.31 1014.15 1014.02 1013.74 1013.46 1013.36 1013.25 1013.34 1012.99 1012.80 1012.27 1012.28 1012.09
1017.43 1018.68 1019.35 1019.83 1020.45 1021.02 1021.55 1022.01 1021.99 1021.39 1020.03 1018.47 1016.90 1015.46 1014.51 1014.46 1014.75 1013.60 1013.16 1013.58 1013.26 1013.11 1013.18 1013.09 1013.20 1013.29 1013.17 1013.08 1013.04 1012.99 1012.97 1014.03 1015.15 1015.01 1014.97 1015.00 1015.32 1015.39 1015.42 1015.29 1015.00 1014.70 1014.45 1014.19 1014.05 1013.92 1013.72 1013.61 1013.53 1013.27 1012.89 1012.66 1012.70 1012.53
1017.80 1018.06 1018.90 1019.82 1020.53 1021.12 1021.58 1021.62 1020.91 1019.92 1018.41 1016.92 1015.66 1014.70 1014.75 1015.17 1014.44 1014.38 1014.49 1014.50 1013.87 1013.39 1013.51 1013.46 1013.60 1013.34 1013.27 1013.07 1012.93 1013.13 1014.38 1015.21 1015.22 1015.36 1015.39 1015.71 1015.90 1015.90 1015.79 1015.51 1015.12 1014.81 1014.54 1014.27 1014.08 1013.84 1013.66 1013.48 1013.33 1013.21 1013.01 1013.08 1013.27 1012.99
1017.65 1018.23 1019.17 1019.98 1020.62 1021.10 1021.09 1021.02 1019.32 1018.10 1017.10 1016.08 1015.51 1014.90 1014.21 1014.07 1014.63 1014.94 1015.08 1014.68 1013.98 1013.73 1013.79 1013.76 1014.00 1013.80 1013.67 1013.42 1013.92 1014.60 1014.95 1015.03 1015.36 1015.79 1015.91 1015.94 1015.94 1015.84 1015.74 1015.46 1014.99 1014.63 1014.30 1014.11 1013.91 1013.68 1013.55 1013.27 1013.06 1013.21 1013.36 1013.52 1013.61 1013.89
1017.88 1018.66 1019.40 1019.91 1019.99 1019.96 1019.34 1019.14 1018.57 1017.31 1015.86 1015.06 1014.61 1014.44 1014.42 1014.89 1015.11 1015.00 1014.62 1014.57 1014.35 1014.11 1014.20 1014.10 1014.26 1014.21 1014.11 1014.52 1015.03 1015.30 1015.62 1015.84 1016.17 1016.23 1016.01 1016.00 1015.92 1015.67 1015.45 1015.07 1014.64 1014.18 1013.89 1013.80 1013.73 1013.74 1013.56 1013.28 1013.36 1013.67 1014.01 1014.08 1014.00 1014.61
1018.78 1019.49 1019.88 1020.31 1020.52 1019.56 1018.04 1017.30 1016.98 1016.57 1015.68 1015.13 1014.80 1014.92 1014.82 1014.90 1015.12 1015.34 1015.20 1014.96 1014.80 1014.73 1014.76 1014.73 1014.82 1015.20 1015.63 1015.84 1015.91 1016.13 1016.31 1016.58 1016.55 1016.35 1016.17 1016.11 1015.87 1015.63 1015.29 1014.93 1014.65 1014.11 1014.05 1014.09 1014.06 1014.12 1014.11 1014.10 1014.20 1014.27 1014.49 1014.83 1015.13 1015.50
1019.32 1020.06 1020.36 1020.28 1019.78 1019.27 1017.87 1016.10 1015.80 1015.70 1015.59 1014.81 1014.70 1015.08 1015.21 1015.00 1015.27 1015.67 1015.91 1016.10 1015.82 1015.60 1015.62 1015.41 1015.75 1016.12 1016.27 1016.41 1016.52 1016.70 1016.81 1016.88 1016.79 1016.72 1016.59 1016.32 1015.99 1015.60 1015.44 1015.27 1014.97 1014.78 1014.79 1014.85 1014.90 1014.93 1014.84 1014.81 1014.86 1014.88 1015.01 1015.35 1015.76 1016.08
1018.68 1019.58 1019.51 1019.96 1018.87 1017.31 1016.77 1015.78 1016.05 1015.20 1014.89 1014.79 1014.78 1014.97 1015.31 1015.76 1016.39 1017.21 1017.29 1016.68 1016.55 1016.33 1016.58 1016.76 1016.84 1017.01 1016.98 1016.87 1017.00 1017.04 1016.93 1016.82 1016.69 1016.52 1016.34 1016.26 1016.15 1015.95 1015.79 1015.73 1015.57 1015.47 1015.56 1015.47 1015.50 1015.44 1015.70 1015.82 1015.81 1015.88 1015.93 1016.11 1016.34 1016.54
1018.94 1018.80 1018.23 1017.43 1017.17 1017.08 1016.64 1015.49 1015.48 1015.34 1015.54 1015.74 1015.63 1015.99 1016.46 1017.16 1018.19 1018.29 1018.09 1018.15 1018.00 1017.79 1017.73 1017.65 1017.54 1017.50 1017.42 1017.36 1017.23 1017.03 1017.00 1016.91 1016.73 1016.39 1016.48 1016.41 1016.28 1016.11 1016.04 1016.07 1016.00 1016.00 1016.07 1016.17 1016.10 1016.13 1016.33 1016.45 1016.51 1016.53 1016.59 1016.65 1016.87 1016.98
1018.40 1018.15 1017.77 1017.09 1017.06 1016.92 1016.15 1015.94 1016.25 1016.59 1016.88 1016.70 1016.93 1017.14 1018.00 1018.74 1019.10 1019.17 1019.09 1018.87 1018.38 1018.04 1017.84 1017.65 1017.62 1017.49 1017.43 1017.33 1017.24 1017.19 1017.10 1017.07 1016.91 1016.78 1016.65 1016.42 1016.23 1016.22 1016.19 1016.21 1016.37 1016.38 1016.32 1016.49 1016.54 1016.57 1016.62 1016.76 1016.84 1016.89 1017.01 1017.07 1017.23 1017.44
1018.62 1018.42 1018.08 1017.69 1016.95 1016.69 1016.63 1016.90 1017.61 1017.94 1018.04 1017.95 1018.11 1018.44 1019.03 1019.54 1019.60 1019.56 1019.32 1018.74 1018.26 1017.97 1017.65 1017.39 1017.32 1017.29 1017.32 1017.35 1017.34 1017.29 1017.17 1017.06 1016.88 1016.75 1016.63 1016.46 1016.34 1016.35 1016.39 1016.57 1016.65 1016.71 1016.56 1016.64 1016.70 1016.72 1016.88 1017.02 1017.03 1016.90 1016.75 1016.61 1016.70 1016.91
1018.80 1018.32 1018.28 1017.54 1017.48 1017.45 1017.50 1017.98 1018.38 1018.59 1018.63 1018.49 1018.52 1018.98 1019.36 1019.48 1019.54 1019.38 1018.94 1018.51 1018.27 1017.81 1017.47 1017.36 1017.21 1017.23 1017.19 1017.19 1017.25 1017.17 1016.94 1016.75 1016.74 1016.43 1016.26 1016.10 1016.19 1016.17 1016.42 1016.59 1016.79 1016.90 1016.69 1016.50 1016.34 1016.25 1016.23 1016.32 1016.18 1016.03 1016.17 1016.32 1016.41 1016.68
1019.19 1018.73 1018.51 1018.12 1018.16 1018.24 1018.36 1018.80 1018.87 1018.70 1018.34 1018.17 1018.47 1018.81 1019.02 1019.12 1019.04 1018.85 1018.42 1018.12 1017.81 1017.56 1017.41 1017.39 1017.27 1017.13 1017.06 1017.00 1016.92 1016.74 1016.51 1016.29 1016.07 1015.57 1015.28 1015.65 1015.77 1016.10 1016.19 1016.08 1016.21 1016.15 1016.18 1016.28 1015.91 1015.88 1016.04 1016.12 1016.21 1016.26 1016.33 1016.39 1016.50 1016.72
1019.61 1019.38 1018.96 1018.82 1018.82 1018.82 1018.54 1018.22 1018.05 1017.81 1017.55 1017.65 1018.01 1017.96 1018.22 1018.48 1018.51 1018.35 1018.10 1017.95 1017.73 1017.70 1017.58 1017.32 1017.26 1017.43 1017.09 1016.55 1016.09 1015.97 1015.79 1015.47 1015.20 1015.17 1015.14 1015.34 1015.47 1015.69 1015.94 1016.09 1016.26 1016.23 1016.28 1016.13 1016.22 1016.19 1016.08 1016.11 1016.13 1016.24 1016.51 1016.85 1017.14 1017.31
1019.43 1019.18 1019.06 1018.63 1018.46 1018.25 1017.86 1017.23 1016.65 1016.14 1016.23 1016.79 1017.18 1017.56 1017.86 1017.91 1018.00 1017.96 1017.87 1017.69 1017.78 1017.65 1017.22 1017.14 1016.77 1016.56 1016.36 1015.88 1015.53 1015.10 1014.74 1014.63 1014.72 1014.97 1015.21 1015.48 1015.72 1015.97 1015.87 1015.94 1016.00 1016.22 1016.47 1016.70 1016.84 1016.81 1016.73 1016.73 1016.84 1016.82 1016.91 1017.09 1017.33 1017.55
1018.24 1018.25 1017.90 1017.27 1017.02 1016.61 1016.18 1015.85 1015.74 1015.53 1015.53 1016.23 1016.66 1016.95 1017.25 1017.44 1017.36 1017.37 1017.46 1017.49 1017.33 1016.88 1016.35 1015.63 1015.17 1014.99 1014.78 1014.78 1014.49 1014.55 1014.38 1014.24 1014.46 1014.73 1014.82 1015.00 1015.22 1015.40 1015.54 1015.70 1015.91 1016.02 1016.20 1016.46 1016.64 1016.89 1016.94 1016.92 1016.99 1017.03 1017.23 1017.24 1017.35 1017.54
1016.74 1016.88 1016.78 1016.10 1016.28 1016.40 1016.35 1016.24 1016.05 1015.97 1016.02 1016.22 1016.10 1016.17 1016.46 1016.79 1016.91 1016.76 1016.40 1016.14 1015.84 1015.15 1014.75 1014.48 1013.99 1013.71 1013.69 1013.85 1014.00 1014.32 1014.80 1015.15 1015.32 1015.33 1014.89 1015.07 1015.40 1015.65 1015.79 1015.84 1015.84 1015.88 1016.03 1016.13 1016.25 1016.59 1016.82 1016.92 1016.91 1017.12 1017.02 1017.29 1017.67 1017.93
1015.74 1015.59 1015.42 1015.56 1016.08 1016.33 1016.34 1016.45 1016.48 1016.45 1016.08 1015.69 1015.51 1015.30 1015.37 1015.39 1015.21 1015.08 1014.70 1014.84 1014.84 1014.51 1013.98 1013.82 1013.54 1013.76 1013.98 1014.34 1014.79 1015.20 1015.48 1016.15 1016.50 1016.57 1016.61 1016.70 1016.79 1016.70 1016.49 1016.08 1016.22 1016.28 1016.29 1016.21 1016.27 1016.37 1016.70 1016.81 1016.95 1017.09 1017.26 1017.45 1017.79 1018.10
1015.28 1015.00 1014.91 1015.02 1015.23 1015.41 1015.43 1015.49 1015.67 1015.56 1015.30 1014.75 1014.13 1013.59 1013.62 1013.69 1013.82 1013.58 1013.15 1013.07 1013.00 1013.10 1013.23 1013.34 1013.57 1013.95 1014.53 1014.98 1015.67 1016.25 1016.70 1017.09 1017.31 1017.44 1017.59 1017.70 1017.72 1017.62 1017.53 1017.38 1017.23 1016.95 1016.77 1016.71 1016.62 1016.64 1016.87 1017.16 1017.27 1017.49 1017.71 1017.88 1018.10 1018.29
Wind_Speed
10 11 11 10 8 9 9 10 10 10 13 13 16 17 19 20 21 12 8 8 2 4 9 7 10 7 8 9 4 7 4 5 2 1 1 3 3 6 7 9 5 9 7 6 2 4 10 6 6 2 6 3 12 12
10 10 11 11 8 7 8 10 8 9 11 13 14 15 18 19 20 18 4 9 8 4 6 11 13 9 7 3 3 5 3 9 4 4 3 3 3 4 3 4 6 4 8 7 9 8 6 10 8 5 5 1 7 11
12 11 12 11 9 8 8 7 7 9 11 12 13 14 16 17 17 13 6 7 6 3 7 6 7 8 5 4 4 1 3 5 4 3 3 4 3 4 2 2 5 11 7 4 4 14 12 13 13 18 6 7 10 13
12 12 12 11 10 8 8 8 8 9 11 11 12 13 15 16 15 13 5 8 6 4 4 1 7 2 1 3 5 3 2 4 3 2 2 2 3 4 4 2 3 4 5 7 5 6 6 8 3 1 14 8 12 15
11 12 13 11 10 9 8 8 9 9 10 11 12 13 14 16 16 10 6 7 8 2 4 7 12 6 9 4 5 4 2 1 3 3 2 3 3 4 4 4 3 2 3 3 2 4 2 3 4 2 6 7 9 10
11 12 11 11 10 9 9 9 10 9 10 11 12 13 14 15 16 5 3 4 7 5 3 4 2 4 6 6 3 3 3 2 3 1 3 4 5 1 2 1 1 7 9 3 4 3 3 4 6 7 7 7 7 9
11 12 12 11 11 10 9 9 8 9 10 11 12 13 13 13 6 4 4 4 10 5 4 5 3 3 7 5 3 3 5 4 3 3 4 4 6 3 1 3 4 7 7 6 6 7 7 1 4 5 8 7 11 8
13 13 13 12 12 11 9 8 8 9 10 12 13 14 15 17 13 6 3 12 2 4 4 4 3 2 7 4 3 4 4 4 3 3 2 4 4 2 3 5 4 1 6 6 2 5 4 6 3 3 4 5 5 6
16 15 13 13 12 12 10 9 8 9 10 12 15 18 6 4 3 3 4 4 4 3 4 4 3 3 8 6 1 2 4 4 4 5 6 3 4 5 7 10 8 1 6 6 8 7 7 7 9 7 3 6 5 6
18 17 15 14 13 12 10 9 8 8 9 12 6 4 3 1 6 2 2 4 5 5 5 4 1 4 2 4 3 0 2 3 2 4 5 6 4 9 8 6 8 8 8 6 3 4 6 6 5 6 7 9 1 2
20 19 17 16 14 13 11 9 7 7 9 4 4 2 1 2 2 4 3 4 4 4 6 5 8 2 2 5 2 4 2 5 1 4 1 1 2 2 10 12 10 9 8 8 8 7 6 5 4 3 2 5 5 1
20 20 18 17 15 13 11 9 6 2 2 4 4 6 4 2 3 3 3 4 5 4 4 4 4 1 3 2 4 1 2 3 4 4 1 4 2 7 8 8 8 8 8 7 7 6 7 9 11 6 5 2 5 3
15 21 19 17 15 13 11 9 7 8 11 4 4 4 3 2 1 6 6 5 4 0 3 3 3 3 4 3 3 3 4 8 4 2 2 2 6 6 6 6 6 5 5 6 6 7 7 7 11 10 13 2 7 3
15 22 19 17 14 13 11 8 5 5 4 4 3 2 4 5 6 6 5 2 3 4 4 2 2 3 2 2 3 3 4 5 4 4 4 3 3 5 7 8 6 6 7 7 7 9 10 12 8 10 11 10 7 6
21 22 19 15 15 13 11 8 5 4 3 4 5 5 8 8 7 2 7 6 2 3 3 3 2 2 1 3 3 1 1 4 5 5 3 3 6 6 6 6 6 7 6 6 8 5 9 11 12 7 10 8 10 10
25 18 9 16 15 13 10 7 4 3 4 5 6 5 3 3 7 8 3 4 3 1 2 3 1 2 4 2 2 5 3 4 3 2 2 3 6 6 6 7 8 9 9 7 7 8 7 8 9 8 9 5 9 12
17 5 19 18 15 12 10 4 5 6 5 4 4 5 2 6 2 5 5 4 5 2 2 0 2 2 3 2 3 3 4 2 5 3 3 4 4 5 6 8 9 8 9 7 7 8 6 7 8 7 8 2 4 7
2 15 21 19 13 7 5 5 5 4 6 5 5 5 7 5 3 3 2 4 2 3 2 2 2 2 3 3 4 3 4 4 5 4 4 3 3 5 5 8 8 8 7 6 6 5 6 7 4 1 3 4 8 8
13 14 21 20 8 4 6 6 4 5 6 4 4 2 3 3 4 1 2 1 3 1 3 1 2 3 1 4 5 4 5 4 4 4 4 4 6 6 7 7 8 7 5 4 3 0 3 6 4 3 3 4 7 6
17 14 12 9 2 3 4 5 4 4 3 3 4 2 1 1 5 3 2 3 3 3 1 2 2 4 3 4 4 4 3 3 3 4 4 4 4 5 5 3 3 5 6 7 6 6 6 6 5 5 6 7 7 6
12 5 8 6 4 6 4 2 4 1 4 2 3 5 0 2 0 3 3 4 2 1 2 2 4 5 6 4 4 3 3 2 2 1 3 3 4 3 3 3 4 5 5 5 6 6 6 5 5 5 6 7 7 8
6 15 3 7 5 7 5 3 2 5 1 1 2 2 3 2 4 5 6 1 3 3 4 5 5 6 5 4 4 2 3 3 3 3 4 4 1 2 3 3 4 5 6 5 5 6 7 6 6 7 8 7 7 6
10 6 5 5 2 3 5 3 2 3 3 4 2 2 2 3 3 5 2 2 3 2 2 4 5 4 4 3 3 1 2 3 2 3 3 3 2 1 3 4 4 5 5 5 5 6 6 6 6 7 6 6 6 7
2 2 3 2 4 3 2 1 4 4 4 3 3 2 3 3 2 2 2 2 3 2 2 4 2 2 1 2 1 1 1 2 2 3 2 1 4 5 5 4 4 3 3 3 3 4 4 5 5 5 4 5 5 5
3 3 2 4 4 1 2 3 3 2 2 2 1 1 2 1 1 1 2 3 2 4 4 1 2 2 2 2 2 1 1 0 1 3 2 2 6 5 5 5 5 5 4 4 3 4 4 4 4 4 5 5 6 7
1 2 2 2 1 2 1 2 2 2 2 3 2 2 2 2 2 3 2 2 2 2 1 2 2 2 3 3 3 2 3 3 2 3 3 3 5 6 6 5 4 2 4 4 4 5 5 6 4 7 7 6 7 8
2 1 2 3 2 2 2 1 1 2 3 3 2 3 3 2 2 2 2 2 2 1 2 3 2 2 2 2 2 2 4 4 6 3 4 5 3 4 2 2 7 4 2 6 2 5 5 4 5 5 4 3 4 6
1 2 1 1 0 1 2 2 3 4 3 3 3 3 2 2 1 1 1 2 3 3 1 2 2 3 4 6 5 5 6 7 7 4 5 6 5 5 6 6 6 11 7 9 9 9 4 1 3 5 8 7 6 5
2 2 2 3 3 4 4 4 3 3 3 3 3 3 3 1 1 2 2 1 1 2 4 3 5 6 6 7 7 5 5 3 6 8 10 6 5 3 3 3 3 5 5 5 8 7 8 6 7 6 6 5 4 5
4 5 4 4 4 5 2 1 2 5 5 3 3 3 2 1 2 2 3 4 5 7 7 7 5 7 8 9 7 5 2 3 3 3 5 5 7 7 6 5 5 5 5 5 4 4 2 2 2 1 1 2 1 1
5 5 3 1 4 5 4 5 6 7 7 3 5 7 6 5 4 6 7 7 8 8 6 7 6 3 2 4 4 8 7 8 11 13 8 7 7 5 4 1 2 3 2 2 3 5 4 4 4 6 3 6 6 4
1 1 5 9 7 6 5 4 3 3 2 3 5 7 7 7 7 7 8 11 11 12 9 8 4 6 7 8 9 10 14 8 8 8 11 8 7 8 8 3 5 4 5 3 2 3 4 4 6 6 5 4 4 3
3 1 6 7 8 6 7 6 7 7 6 5 5 5 7 5 3 2 2 2 1 4 2 4 7 8 12 12 11 8 9 8 9 9 12 11 10 9 7 6 7 6 5 4 5 4 4 4 3 5 4 3 3 3
Wind_Direction
243 247 251 260 273 292 296 305 316 330 338 341 347 350 353 355 358 353 279 284 349 311 293 355 353 349 347 21 14 325 340 17 96 174 281 249 239 240 235 246 195 176 173 209 190 236 270 328 20 37 202 254 165 176
242 242 241 249 259 277 288 302 306 319 327 336 338 342 347 350 356 351 289 339 342 253 270 311 283 282 282 327 340 327 301 23 1 356 14 312 283 323 339 288 284 219 176 190 166 203 116 62 68 4 23 357 332 150
240 241 233 236 246 260 276 296 299 314 318 327 333 336 339 344 349 358 302 307 295 266 277 233 244 240 215 229 265 12 48 18 360 320 293 289 294 26 341 315 311 353 0 108 74 28 50 47 14 0 14 359 29 17
238 237 228 225 237 252 265 274 289 301 317 318 326 331 333 335 337 342 312 297 288 301 275 50 116 143 194 296 229 219 263 23 290 251 284 297 327 347 316 314 353 348 24 344 92 41 104 44 15 332 322 49 65 55
238 230 221 216 232 241 251 267 279 299 308 312 320 324 328 329 328 311 265 262 271 294 314 301 312 226 169 182 278 240 173 98 311 318 273 271 296 339 299 315 33 332 19 65 63 289 64 141 210 205 287 20 58 76
239 223 217 211 226 229 247 259 278 288 300 307 312 316 321 325 333 297 223 120 9 12 280 282 34 167 138 132 225 258 185 188 238 281 289 272 271 248 295 325 197 56 64 92 175 192 176 154 149 17 5 135 102 90
239 213 204 214 225 224 239 256 267 284 294 302 305 307 308 309 313 272 321 320 329 316 255 275 248 136 143 149 208 200 215 233 200 227 229 268 293 309 242 244 167 110 80 42 4 360 27 343 52 52 44 53 88 84
220 211 209 216 219 217 228 245 258 280 292 299 301 300 299 296 278 271 224 237 216 259 269 279 294 150 162 193 199 210 188 192 246 239 252 233 280 235 250 296 349 140 170 138 57 48 19 360 70 64 117 103 111 129
213 211 211 213 213 211 223 239 254 275 291 299 301 294 289 216 249 70 164 137 216 291 308 275 247 225 344 247 189 211 203 188 216 196 234 220 244 230 200 225 258 222 101 62 40 16 3 4 353 320 310 118 134 175
208 203 201 203 207 208 220 234 252 275 292 303 284 218 242 188 138 166 135 199 200 197 220 253 242 192 204 312 191 272 313 244 238 217 199 207 230 243 265 212 141 107 98 102 81 27 8 342 349 350 354 359 69 84
203 197 195 193 201 208 216 227 246 295 269 220 238 222 229 80 260 229 233 223 203 222 199 228 235 140 219 229 81 2 354 328 326 250 241 94 162 76 60 57 45 50 54 47 38 11 325 295 298 240 332 337 337 267
201 190 189 188 194 203 210 210 215 240 334 311 293 282 262 225 232 255 232 234 215 220 235 202 240 207 189 108 105 100 296 311 250 314 278 180 124 58 69 72 54 43 36 27 15 358 347 352 345 311 193 209 297 326
197 185 179 185 189 195 198 197 214 278 309 244 206 238 172 224 49 226 206 215 190 244 22 33 3 76 4 42 103 114 119 249 135 147 207 60 82 57 45 21 45 33 10 340 344 334 330 330 338 348 335 272 245 351
184 169 170 180 184 184 185 189 209 259 263 258 227 293 211 216 225 211 242 42 321 82 60 355 312 75 26 352 221 217 206 255 229 210 102 118 61 49 23 6 6 4 351 340 332 323 326 324 326 334 334 336 336 278
172 160 167 172 174 173 175 176 197 236 268 256 231 208 214 242 302 83 123 228 122 110 105 291 253 149 213 243 255 305 175 281 29 33 25 23 28 25 21 8 347 339 329 322 314 315 314 320 318 319 330 340 358 355
142 138 165 162 166 165 161 176 193 243 244 238 240 277 325 297 188 239 108 93 353 116 220 224 182 255 231 256 242 239 287 51 147 205 238 53 29 6 342 326 311 304 301 298 298 303 296 292 297 313 310 21 30 10
152 141 159 155 157 158 180 227 203 226 251 252 253 247 150 255 337 38 61 353 318 336 35 245 230 258 296 244 225 38 56 74 64 37 71 75 355 324 315 303 297 300 290 284 285 275 273 280 277 279 306 43 49 56
93 137 146 147 148 159 182 218 251 227 242 242 265 301 291 63 86 102 246 228 338 9 331 43 312 271 278 323 37 64 35 44 57 38 1 15 334 297 286 282 289 286 279 267 268 274 279 282 291 172 102 110 99 74
132 143 152 167 177 250 178 200 232 262 231 286 255 207 49 98 82 360 309 36 291 289 319 274 280 268 304 40 35 46 25 30 348 339 329 348 310 308 301 292 292 298 270 248 249 250 70 64 75 73 109 88 83 85
120 135 150 162 253 275 239 196 193 225 294 296 70 343 138 147 136 212 334 343 5 333 230 277 37 35 42 47 28 24 21 29 328 326 325 316 317 310 311 346 349 342 84 60 60 70 78 73 67 74 71 84 94 101
128 137 157 192 223 221 274 251 203 173 212 207 170 172 203 202 349 122 100 356 249 288 262 337 42 56 23 17 57 9 10 328 321 276 294 309 327 347 29 21 26 23 59 69 64 58 63 69 71 68 75 81 88 90
105 165 181 197 261 206 240 245 127 260 44 221 172 7 44 56 57 29 316 295 309 34 21 1 0 351 330 359 7 345 302 316 310 286 263 268 315 36 46 26 52 62 54 56 74 71 70 70 79 86 91 92 85 94
151 190 226 222 309 46 260 254 232 37 15 5 335 66 33 60 36 340 329 354 306 322 327 312 305 309 295 308 301 341 12 344 349 25 70 52 67 44 85 66 71 84 85 68 78 89 88 88 87 96 89 89 106 102
179 245 273 294 171 240 279 190 34 34 8 1 358 51 45 37 17 19 279 270 256 281 268 257 234 272 231 261 105 96 334 31 46 52 16 90 66 72 96 100 87 65 75 81 88 102 112 118 121 117 132 138 132 130
237 307 150 291 263 287 200 75 68 29 325 1 2 113 99 50 284 288 255 265 270 292 280 249 190 191 122 106 102 99 351 278 75 125 272 279 94 92 73 71 84 112 139 123 127 132 138 164 202 215 218 196 143 137
3 223 128 306 320 22 72 174 161 206 230 219 172 107 164 224 223 253 254 298 286 286 126 127 140 94 75 74 126 179 234 230 255 170 201 221 141 135 134 132 146 201 227 244 216 228 194 200 179 97 82 90 118 116
253 209 11 20 13 47 93 60 328 269 262 196 163 180 205 223 249 252 294 259 249 43 81 85 97 134 173 205 236 253 250 229 237 243 176 182 181 186 178 186 180 197 191 245 247 101 113 124 136 156 176 96 62 95
303 305 268 101 78 173 267 223 203 214 224 182 176 215 184 201 235 245 264 349 14 47 56 251 248 228 244 254 228 215 222 226 227 152 73 67 71 82 89 87 92 99 74 49 44 30 27 65 121 95 87 84 70 64
213 196 214 210 219 202 219 233 231 202 162 151 140 171 178 195 174 189 225 240 211 271 257 274 249 240 241 234 236 249 228 204 144 151 140 136 130 126 133 139 127 105 109 93 61 66 58 59 46 49 72 103 122 96
198 187 229 226 207 204 201 213 52 54 87 94 112 130 91 28 255 220 198 192 214 225 235 247 217 212 208 215 224 211 242 81 72 127 139 142 156 166 171 162 163 162 136 134 138 136 86 177 90 107 353 7 67 145
162 187 245 290 65 51 57 46 78 93 89 89 108 114 134 158 200 230 232 228 237 242 224 238 253 144 104 82 112 102 81 52 41 27 23 86 74 64 66 70 147 119 91 80 168 162 175 223 215 236 181 96 90 31
322 286 119 111 126 170 150 106 44 21 296 190 184 205 174 193 193 187 212 215 232 241 224 235 138 94 96 95 64 62 71 68 45 43 45 42 39 25 355 44 62 42 25 15 354 102 81 27 39 42 49 77 99 82
162 227 103 124 126 133 161 158 177 187 209 215 225 192 154 151 139 158 287 264 200 133 244 87 92 82 98 101 100 89 78 87 93 86 79 66 52 37 37 18 3 1 2 6 13 68 92 73 25 71 43 42 27 26